Regional Weather Roundup
Issued by NWS

Home | Current Version | Previous Version | Graphics & Text | Print | Product List | Glossary On
Versions: 1 2 3 4 5 6 7 8 9 10 11 12 13 14 15 16 17 18 19 20 21 22 23 24 25 26 27 28 29 30 31 32 33 34 35 36 37 38 39 40 41 42 43 44 45 46 47 48 49 50
000
ASUS45 KTFX 051510
RWRMT
MONTANA REGIONAL WEATHER ROUNDUP
NATIONAL WEATHER SERVICE GREAT FALLS MT
900 AM MDT SUN JUL 05 2015

NOTE: "FAIR" INDICATES FEW OR NO CLOUDS BELOW 12000 FEET WITH NO
SIGNIFICANT WEATHER AND/OR OBSTRUCTIONS TO VISIBILITY.

MTZ001>007-043-051600-
WEST OF THE DIVIDE

CITY           SKY/WX    TMP DP  RH WIND       PRES   REMARKS
KALISPELL      CLOUDY    60  43  53 NE16G25   30.06S
MISSOULA       MOSUNNY   68  45  43 E12       30.02S
BUTTE          CLOUDY    57  48  72 N5        30.13R
MULLAN PASS    MOSUNNY   58  46  64 VRB5      30.07R
DEER LODGE       N/A     55  46  71 N15G21    30.16S
EUREKA           N/A     59  48  67 E3        30.10S
HAMILTON         N/A     66  50  55 N13       29.99S
LIBBY            N/A     64  45  48 W6        30.05S
RONAN            N/A     65  48  53 CALM      30.07R
$$

MTZ008-052>055-051600-
SOUTHWEST MONTANA

CITY           SKY/WX    TMP DP  RH WIND       PRES   REMARKS
BOZEMAN        CLOUDY    59  51  75 S14       30.08R
DILLON         PTSUNNY   63  50  62 NE20      30.07R
W YELLOWSTONE  CLOUDY    63  48  59 W3        30.12R
THREE FORKS      N/A     62  61  97 N8        30.07S
TWIN BRIDGES     N/A     62  47  58 N22       30.04R
$$

MTZ009-010-012-014-046-048-049-054-051600-
EAST SLOPES AND CENTRAL MONTANA

CITY           SKY/WX    TMP DP  RH WIND       PRES   REMARKS
CUT BANK       LGT RAIN  49  47  93 N10       30.18F
GREAT FALLS    LGT RAIN  51  51 100 N9        30.16R FOG
MALMSTROM AFB  LGT RAIN  52  52 100 N9        30.16S FOG
HELENA         CLOUDY    58  48  69 NW8       30.14R
CONRAD           N/A     50  50 100 W3        30.20R
$$

MTZ011-013-016-021-045-047-050-051-051600-
NORTH CENTRAL MONTANA

CITY           SKY/WX    TMP DP  RH WIND       PRES   REMARKS
LEWISTOWN      CLOUDY    56  50  80 N12       30.13R
$$

MTZ017>020-022>027-061-062-051600-
NORTHEAST MONTANA

CITY           SKY/WX    TMP DP  RH WIND       PRES   REMARKS
GLASGOW        MOSUNNY   65  49  56 N21G28    30.02R
JORDAN           N/A     62  53  72 N15G23    30.05R
SIDNEY         PTSUNNY   66  63  88 NW15G21   29.91R
WOLF POINT     SUNNY     69  53  56 N22G29    29.96R HAZE
PLENTYWOOD       N/A     64  55  72 NW17G23   29.95R
POPLAR           N/A     66  55  68 N13       29.97R
SCOBEY           N/A     62  48  60 NW14      29.99R
$$

MTZ028>42-056>058-051600-
SOUTHCENTRAL AND SOUTHEAST MONTANA

CITY           SKY/WX    TMP DP  RH WIND       PRES   REMARKS
BAKER          PTSUNNY   68  59  73 E20G25    29.90R
BILLINGS       CLOUDY    61  51  70 N12       30.08R HAZE
LIVINGSTON     CLOUDY    57  51  80 E17G26    30.10R HAZE
MILES CITY     CLOUDY    68  57  68 N15       29.96R
EKALAKA          N/A     68  59  73 NE16      29.90S
FORSYTH          N/A     64  52  63 N10       30.00R
LAUREL           N/A     60  48  64 N8        30.06R
ROUNDUP          N/A     58  47  66 N15       30.01R
$$

REGIONAL REPORTS...DAKOTAS

CITY           SKY/WX    TMP DP  RH WIND       PRES   REMARKS
WILLISTON      CLOUDY    69  60  73 N18       29.89S HAZE
MINOT          CLOUDY    65  62  90 N5        29.83S FOG
DICKINSON      LGT RAIN  63  59  87 E13       29.85S
BEACH          FAIR      66  63  88 E3        29.92R
CROSBY         CLOUDY    63  63 100 NW7       29.92R FOG
BISMARCK       CLOUDY    69  63  81 N14G24    29.83R
GRAND FORKS    CLOUDY    74  68  81 S10       29.73R
FARGO          SUNNY     77  67  71 S10G18    29.73F
BUFFALO SD       N/A     67  60  78 N24G37    29.80R
RAPID CITY     SUNNY     78  66  66 NW13G21   29.80R
$$

REGIONAL REPORTS...WYOMING/IDAHO/WASHINGTON

CITY           SKY/WX    TMP DP  RH WIND       PRES   REMARKS
GILLETTE       MOSUNNY   70  59  68 N21G35    29.93R
SHERIDAN       CLOUDY    61  53  75 NW21G32   30.04R
BUFFALO WY     CLOUDY    59  55  87 NW35G48   30.00R
CODY           CLOUDY    61  50  67 N20G28    30.07S
YELLOWSTONE LA   N/A     62  45  53 VRB3      30.21R
IDAHO FALLS    CLOUDY    72  52  49 SW17G23   30.00R
SALMON         MOSUNNY   72  48  43 CALM      29.90S
BOISE          CLOUDY    80  53  39 N6        29.89R
SPOKANE        MOSUNNY   77  48  35 NE15      29.87R
$$

REGIONAL REPORTS...ALBERTA

CITY           SKY/WX    TMP DP  RH WIND       PRES   REMARKS
EDMONTON       CLOUDY    54  43  66 N12G17    30.16R
CALGARY        PTSUNNY   55  45  67 NW17G23   30.21S
LETHBRIDGE     CLOUDY    52  50  93 W9        30.19S
MEDICINE HAT   CLOUDY    57  50  77 W10       30.14R
WATERTON GATE    N/A     46  45  93 S2          N/A
CARDSTON         N/A     48  48 100 W5          N/A
ONEFOUR          N/A     54  50  87 NW16        N/A
$$

REGIONAL REPORTS...SASKATCHEWAN

CITY           SKY/WX    TMP DP  RH WIND       PRES   REMARKS
SWIFT CURRENT  MOSUNNY   55  50  82 W12       30.05S
REGINA         CLOUDY    61  55  82 NW17G24   29.95R SMOKE
SASKATOON      MOSUNNY   59  50  72 NW10      30.00R
CYPRESS HILLS    N/A     48  46  93 NW8G17      N/A
VAL MARIE        N/A     55  52  88 N13         N/A
ROCKGLEN         N/A     57  50  77 NW13G20     N/A
ASSINIBOIA       N/A     54  52  94 NW10        N/A
$$


USA.gov is the U.S. government's official web portal to all federal, state and local government web resources and services.